Location: ActonStarParty
(42.4766°N, 71.4538°W)
Time: 01:28:23
(UTC-04:00)

Spot 2 Rocket - Pass Details

Date: 19 April 2018
Orbit: 757 x 773 km, 98.7° (Epoch: 19 September)

Event Time Altitude Azimuth Distance (km) Brightness Sun altitude
Exits shadow 20:24:00 - 148° (SSE) 2,532 5.7 -9.7°
Reaches altitude 10° 20:24:34 10° 146° (SSE) 2,310 5.5 -9.8°
Maximum altitude 20:29:30 53° 71° (ENE) 947 3.7 -10.6°
Drops below altitude 10° 20:34:27 10° 356° (N) 2,317 6.4 -11.5°
Sets 20:36:48 0° 352° (N) 3,245 7.3 -11.8°
